{"data":{"norad_id":65475,"intl_designator":"2025-195T","name":"STARLINK-34832","alt_names":[],"object_type":"PAYLOAD","status":"ACTIVE","operator":null,"country":"US","launch_date":"2025-09-03","launch_site_code":"AFETR","launch_vehicle":null,"mission":null,"orbit_class":"UNKNOWN","rcs_meters":null,"size_class":null,"mass_kg":null,"dimensions":null,"purposes":["comms"],"wikipedia_slug":null,"has_3d_model":false,"image_url":null,"decayed_at":null,"tle_current":{"epoch":"2026-09-20T21:03:33.937632Z","epoch_age_seconds":79390,"freshness":"FRESH","line1":"1 65475U 25195T   26263.87747613  .00021381  00000+0  64169-3 0  9994","line2":"2 65475  53.1575  67.5949 0000301 251.1737 108.9233 15.34421513 59914","mean_motion":15.34421513,"eccentricity":3.01e-5,"inclination_deg":53.1575,"raan_deg":67.5949,"arg_perigee_deg":251.1737,"mean_anomaly_deg":108.9233,"bstar":0.00064169,"rev_number":5991,"period_min":93.846442310666,"perigee_km":462.43339241788,"apogee_km":462.84520715113,"semimajor_km":6840.7762997845,"source":"CELESTRAK","updated_at":"2026-09-21T09:00:35.617435Z"}}}